Weather History for KOGA - March, 2013

Change the Weather History Date:

Thursday, March 14, 2013

  Actual Average Record
Temperature  
Mean Temperature 54 °F -  
Max Temperature 71 °F 51 °F 78 °F (2003)
Min Temperature 37 °F 24 °F 0 °F (1993)
Degree Days  
Heating Degree Days 11    
Growing Degree Days 4 (Base 50)    
Moisture  
Dew Point 33 °F    
Average Humidity 49    
Maximum Humidity 81    
Minimum Humidity 22    
Precipitation  
Precipitation 0.00 in - - ()
Sea Level Pressure  
Sea Level Pressure 30.13 in    
Wind  
Wind Speed 7 mph (WSW)    
Max Wind Speed 14 mph    
Max Gust Speed 20 mph    
Visibility 10 miles    
Events      
Averages and records for this station are not official NWS values.
T = Trace of Precipitation, MM = Missing Value Source: NWS Daily Summary

Daily Weather History Graph

Daily Weather History Graph

Search for Another Location

Airport or City:

Trip Planner

Search our weather history database for the weather conditions in past years. The results will help you decide how hot, cold, wet, or windy it might be!

Date:

Astronomy

Mar. 14, 2013 Rise Set
Actual Time 6:59 AM MDT 6:53 PM MDT
Civil Twilight 6:32 AM MDT 7:20 PM MDT
Nautical Twilight 6:00 AM MDT 7:52 PM MDT
Astronomical Twilight 5:28 AM MDT 8:24 PM MDT
Moon 8:13 AM MDT (3/14) 10:13 PM MDT (3/14)
Length of Visible Light 12h 47m
Length of Day
11h 53m
Waxing Crescent, 9% of the Moon is Illuminated
Mar 14
Waxing Crescent
Mar 19
First Quarter
Mar 27
Full
Apr 2
Last Quarter
Apr 10
New

Hourly Weather History & Observations

Time (MDT) Temp. Windchill Dew Point Humidity Pressure Visibility Wind Dir Wind Speed Gust Speed Precip Events Conditions
12:15 AM 37.4 °F 30.8 °F 32.0 °F 81% 30.12 in 10.0 mi West 9.2 mph - N/A   Clear
12:35 AM 38.5 °F 32.1 °F 32.5 °F 79% 30.12 in 10.0 mi West 9.2 mph - N/A   Clear
12:55 AM 38.1 °F 31.7 °F 32.2 °F 79% 30.12 in 10.0 mi WSW 9.2 mph - N/A   Clear
1:15 AM 39.4 °F 37.2 °F 32.5 °F 76% 30.12 in 10.0 mi West 3.5 mph - N/A   Clear
1:35 AM 40.5 °F - 32.5 °F 73% 30.12 in 10.0 mi Calm Calm - N/A   Clear
1:55 AM 41.0 °F 36.4 °F 32.5 °F 72% 30.13 in 10.0 mi WSW 6.9 mph - N/A   Clear
2:15 AM 39.2 °F 32.0 °F 32.4 °F 76% 30.13 in 10.0 mi WSW 11.5 mph - N/A   Clear
2:35 AM 39.4 °F 31.8 °F 32.7 °F 77% 30.13 in 10.0 mi WSW 12.7 mph - N/A   Clear
2:55 AM 39.2 °F 32.0 °F 32.5 °F 77% 30.13 in 10.0 mi West 11.5 mph - N/A   Clear
3:15 AM 39.7 °F 32.3 °F 32.7 °F 76% 30.12 in 10.0 mi WSW 12.7 mph - N/A   Clear
3:35 AM 39.7 °F 32.7 °F 32.4 °F 75% 30.12 in 10.0 mi WSW 11.5 mph - N/A   Clear
3:55 AM 42.6 °F 36.8 °F 32.9 °F 68% 30.12 in 10.0 mi WSW 10.4 mph - N/A   Clear
4:15 AM 41.7 °F 35.2 °F 32.9 °F 71% 30.13 in 10.0 mi West 11.5 mph - N/A   Clear
4:35 AM 43.9 °F 42.3 °F 32.9 °F 65% 30.13 in 10.0 mi WSW 3.5 mph - N/A   Clear
4:55 AM 43.7 °F 39.7 °F 32.7 °F 65% 30.14 in 10.0 mi West 6.9 mph - N/A   Clear
5:15 AM 45.3 °F 41.1 °F 32.9 °F 62% 30.15 in 10.0 mi West 8.1 mph - N/A   Clear
5:35 AM 46.2 °F 41.7 °F 32.5 °F 59% 30.15 in 10.0 mi West 9.2 mph - N/A   Clear
5:55 AM 45.9 °F 40.8 °F 32.5 °F 60% 30.16 in 10.0 mi West 10.4 mph - N/A   Clear
6:15 AM 44.4 °F 39.5 °F 32.2 °F 62% 30.17 in 10.0 mi West 9.2 mph - N/A   Clear
6:35 AM 44.1 °F 39.5 °F 32.2 °F 63% 30.18 in 10.0 mi WNW 8.1 mph - N/A   Clear
6:55 AM 44.4 °F 40.5 °F 32.4 °F 63% 30.18 in 10.0 mi NW 6.9 mph - N/A   Clear
7:15 AM 43.2 °F 36.2 °F 32.2 °F 65% 30.19 in 10.0 mi WSW 13.8 mph - N/A   Clear
7:35 AM 45.1 °F 39.5 °F 32.0 °F 60% 30.19 in 10.0 mi West 11.5 mph 18.4 mph N/A   Clear
7:55 AM 46.2 °F 43.3 °F 32.2 °F 58% 30.19 in 10.0 mi West 5.8 mph - N/A   Clear
8:15 AM 43.2 °F - 33.1 °F 68% 30.21 in 10.0 mi Calm Calm - N/A   Clear
8:35 AM 44.8 °F 42.4 °F 34.5 °F 67% 30.21 in 10.0 mi WSW 4.6 mph - N/A   Clear
8:55 AM 46.8 °F - 35.2 °F 64% 30.22 in 10.0 mi WNW 3.5 mph - N/A   Clear
9:15 AM 52.5 °F - 32.5 °F 47% 30.22 in 10.0 mi NW 11.5 mph 19.6 mph N/A   Clear
9:35 AM 53.6 °F - 34.5 °F 48% 30.23 in 10.0 mi West 5.8 mph - N/A   Clear
9:55 AM 56.3 °F - 33.6 °F 42% 30.23 in 10.0 mi Calm Calm - N/A   Clear
10:15 AM 57.4 °F - 32.9 °F 40% 30.23 in 10.0 mi NNW 9.2 mph - N/A   Clear
10:35 AM 59.5 °F - 32.5 °F 36% 30.22 in 10.0 mi NNW 8.1 mph - N/A   Clear
10:55 AM 61.0 °F - 32.4 °F 34% 30.22 in 10.0 mi NW 6.9 mph - N/A   Clear
11:15 AM 62.2 °F - 31.5 °F 31% 30.22 in 10.0 mi NW 5.8 mph - N/A   Clear
11:35 AM 63.0 °F - 32.2 °F 32% 30.21 in 10.0 mi North 3.5 mph - N/A   Clear
11:55 AM 64.0 °F - 32.2 °F 30% 30.22 in 10.0 mi North 4.6 mph - N/A   Clear
12:15 PM 65.3 °F - 32.5 °F 29% 30.21 in 10.0 mi WNW 6.9 mph - N/A   Clear
12:35 PM 66.4 °F - 33.8 °F 30% 30.20 in 10.0 mi NW 6.9 mph - N/A   Clear
12:55 PM 66.7 °F - 32.0 °F 27% 30.20 in 10.0 mi WNW 4.6 mph - N/A   Clear
1:15 PM 67.8 °F - 31.5 °F 26% 30.18 in 10.0 mi WNW 4.6 mph - N/A   Clear
1:35 PM 68.2 °F - 30.2 °F 24% 30.17 in 10.0 mi Calm Calm - N/A   Clear
1:55 PM 68.5 °F - 30.7 °F 25% 30.16 in 10.0 mi Calm Calm - N/A   Clear
2:15 PM 69.1 °F - 29.3 °F 23% 30.15 in 10.0 mi Calm Calm - N/A   Clear
2:35 PM 69.4 °F - 29.1 °F 22% 30.15 in 10.0 mi WNW 4.6 mph - N/A   Clear
2:55 PM 69.8 °F - 29.7 °F 22% 30.14 in 10.0 mi West 4.6 mph - N/A   Clear
3:15 PM 70.0 °F - 30.7 °F 23% 30.13 in 10.0 mi West 4.6 mph - N/A   Clear
3:35 PM 70.7 °F - 31.6 °F 24% 30.11 in 10.0 mi SW 8.1 mph - N/A   Clear
3:55 PM 70.9 °F - 31.3 °F 23% 30.11 in 10.0 mi SW 3.5 mph - N/A   Clear
4:15 PM 71.6 °F - 30.6 °F 22% 30.11 in 10.0 mi SW 3.5 mph - N/A   Clear
4:35 PM 70.9 °F - 31.5 °F 23% 30.11 in 10.0 mi South 4.6 mph - N/A   Clear
4:55 PM 70.7 °F - 32.0 °F 24% 30.09 in 10.0 mi SSW 10.4 mph - N/A   Clear
5:15 PM 70.0 °F - 32.4 °F 25% 30.08 in 10.0 mi South 10.4 mph - N/A   Clear
5:35 PM 69.4 °F - 32.7 °F 26% 30.07 in 10.0 mi South 9.2 mph - N/A   Clear
5:55 PM 68.4 °F - 33.6 °F 28% 30.07 in 10.0 mi South 6.9 mph - N/A   Clear
6:15 PM 66.9 °F - 35.1 °F 31% 30.07 in 10.0 mi SSE 5.8 mph - N/A   Clear
6:35 PM 63.7 °F - 36.1 °F 36% 30.07 in 10.0 mi SSE 4.6 mph - N/A   Clear
6:55 PM 61.0 °F - 36.5 °F 40% 30.07 in 10.0 mi SSE 5.8 mph - N/A   Clear
7:15 PM 58.8 °F - 36.5 °F 43% 30.07 in 10.0 mi South 4.6 mph - N/A   Clear
7:35 PM 57.9 °F - 35.8 °F 44% 30.06 in 10.0 mi South 8.1 mph - N/A   Clear
7:55 PM 59.5 °F - 32.9 °F 37% 30.05 in 10.0 mi South 9.2 mph - N/A   Clear
8:15 PM 59.0 °F - 32.7 °F 37% 30.04 in 10.0 mi South 10.4 mph - N/A   Clear
8:35 PM 58.6 °F - 32.9 °F 38% 30.04 in 10.0 mi South 5.8 mph - N/A   Clear
8:55 PM 59.2 °F - 31.6 °F 35% 30.04 in 10.0 mi South 10.4 mph 17.3 mph N/A   Clear
9:15 PM 55.4 °F - 33.8 °F 44% 30.04 in 10.0 mi South 8.1 mph - N/A   Clear
9:35 PM 51.8 °F - 34.7 °F 52% 30.04 in 10.0 mi West 10.4 mph - N/A   Clear
9:55 PM 52.3 °F - 34.7 °F 51% 30.04 in 10.0 mi SW 8.1 mph - N/A   Clear
10:15 PM 49.5 °F - 34.7 °F 57% 30.04 in 10.0 mi Calm Calm - N/A   Clear
10:35 PM 48.2 °F - 35.1 °F 60% 30.04 in 10.0 mi WSW 3.5 mph - N/A   Clear
10:55 PM 44.8 °F - 34.9 °F 68% 30.04 in 10.0 mi Calm Calm - N/A   Clear
11:15 PM 39.6 °F 36.3 °F 33.1 °F 78% 30.02 in 10.0 mi WSW 4.6 mph - N/A   Clear
11:35 PM 40.5 °F 35.8 °F 33.4 °F 76% 30.02 in 10.0 mi WSW 6.9 mph - N/A   Clear
11:55 PM 41.5 °F 37.1 °F 33.8 °F 74% 30.01 in 10.0 mi WSW 6.9 mph - N/A   Clear